www.pogodaiklimat.ru

Погода и климат >> Архив погоды >> Нигер >> Гуре


ПОГОДА в Гуре

  • Прогноз погоды в Гуре
  • Монитор погоды в Гуре

АРХИВ ПОГОДЫ в Гуре

Время (UTC), дата Ветер
(напр.,м/с)
 
Видим.   Явления Облачность Т
(С)
Тd
(С)
f
(%)
Тe
(С)
Тes
(С)
Комфортность P
(гПа)
Po
(гПа)
Тmin
(С)
Tmax
(С)
R
(мм)
R24
(мм)
S
(см)
00 9.06 штиль 0 10 км 9/0
[Cs]
+28.0 +21.5 68 +36 +36 очень
душно
1012.9 962.7
03 9.06 штиль 0 10 км 9/0
[Cs]
+27.0 +21.9 74 +35 +35 очень
душно
1012.3 962.7
06 9.06 штиль 0 10 км 9/0
[Ac trans Cs]
+27.0 +21.9 74 +35 +36 очень
душно
1014.1 963.6 +26.5
09 9.06 штиль 0 10 км 9/0
[Ac trans Ci sp]
+32.8 +21.6 52 +41 +53 опасность
перегрева
1014.8 964.5
12 9.06 ЮВ 2 10 км 9/1 1200 м
[Cu hum Cs]
+36.6 +18.7 35 +41 +56 опасность
перегрева
1012.6 962.5
15 9.06 Ю 2 10 км 9/4 1200 м
[Cu hum Ci sp]
+37.0 +17.5 32 +40 +44 очень
душно
1010.2 960.2
18 9.06 штиль 0 10 км 9/0
[Cs]
+35.0 +18.7 38 +39 +39 очень
душно
1010.0 959.8 +39.0
21 9.06 штиль 0 10 км 9/0
[Cs]
+32.0 +19.4 47 +38 +38 очень
душно
1011.1 961.0
00 10.06 З 2 10 км 9/0
[Cs]
+31.5 +19.7 50 +38 +38 очень
душно
1010.6 960.8
03 10.06 З 2 10 км 9/0
[Cs]
+29.5 +20.7 59 +37 +37 очень
душно
1010.2 960.4
06 10.06 З 2 10 км 9/1 900 м
[Cb calv Ac trans Ci sp]
+29.5 +20.7 59 +37 +37 очень
душно
1011.3 961.3 +29.0
09 10.06 З 4 10 км 9/0
[Cs]
+34.0 +21.0 47 +41 +50 опасность
перегрева
1012.0 962.0
12 10.06 штиль 0 10 км 9/5 1200 м
[Cu med, cong Ci sp]
+39.0 +16.6 27 +41 +53 опасность
перегрева
1009.6 960.1
15 10.06 штиль 0 10 км в посл. час гроза 9/3 1200 м
[Cb cap Ac cuf Ci sp]
+38.0 +16.6 28 +40 +44 очень
душно
1006.6 957.0
18 10.06 ЮЗ 2 10 км 9/0
[Ac cuf Ci sp]
+32.0 +18.5 45 +37 +37 очень
душно
1007.5 957.4 +41.0
21 10.06 З 2 10 км 9/0
[Cs]
+30.5 +17.5 46 +35 +35 очень
душно
1008.6 958.9
00 11.06 З 4 10 км 9/0
[Cs]
+29.0 +18.4 53 +34 +34 очень
душно
1009.3 959.6
03 11.06 В 2 10 км 9/0
[Cs]
+27.5 +19.2 61 +33 +33 очень
душно
1009.5 959.7
06 11.06 З 6 10 км 9/0
[Cs]
+26.7 +20.5 69 +33 +34 очень
душно
1017.5 961.0 +26.0
09 11.06 З 10 10 км 9/0
[Cs]
+32.5 +19.0 45 +38 +38 очень
душно
1011.8 961.6
12 11.06 СЗ 6 10 км 9/3 1000 м
[Cu med, cong Cs]
+38.0 +16.9 29 +41 +45 опасность
перегрева
1009.2 959.8
15 11.06 С 6 10 км 9/4 1000 м
[Cu med, cong Cs]
+39.5 +9.7 17 +38 +40 очень
жарко
1007.8 958.1
18 11.06 С 4 10 км 9/3 1000 м
[Cu med, cong Cs]
+36.5 +11.0 21 +36 +36 очень
жарко
1007.7 957.7 +40.0
21 11.06 штиль 0 10 км 9/0
[Ac cuf Cs]
+31.0 +15.2 38 +33 +33 душно 1010.0 960.0
00 12.06 ЮЗ 14 10 км 9/0
[Cs]
+30.5 +17.5 46 +35 +35 очень
душно
1009.9 960.3
06 12.06 З 10 10 км 9/0
[Cs]
+28.5 +20.4 62 +35 +35 очень
душно
1012.6 962.5 +27.5
09 12.06 З 4 10 км 9/0
[Cs]
+33.4 +20.4 47 +40 +49 очень
душно
1013.2 961.0
12 12.06 С 2 10 км 9/4 1200 м
[Cu hum Ci sp]
+37.5 +17.2 30 +40 +51 опасность
солнечного
удара
1011.1 961.3
15 12.06 штиль 0 10 км 9/5 900 м
[Cb calv Ci sp]
+38.5 +16.6 28 +41 +45 опасность
перегрева
1008.1 958.4
18 12.06 З 2 10 км зарница 9/3 900 м
[Cb cap Ac cuf Ci sp]
+34.5 +16.0 33 +37 +37 очень
душно
1009.4 959.3 +40.0
21 12.06 штиль 0 10 км {гроза} 9/0
[Cs]
+30.5 +22.6 63
00 13.06 З 2 10 км {дождь} 10/0
[Ac As]
+27.5 +20.1 64 +34 +34 очень
душно
1012.0 961.9 2
03 13.06 З 2 10 км 9/0
[Cs]
+26.0 +20.9 74 +33 +33 очень
душно
1012.1 962.0
06 13.06 штиль 0 10 км 9/0
[Ac trans Ci sp]
+26.2 +21.5 75 +33 +34 очень
душно
1013.6 963.1 +25.0 2
09 13.06 З 4 10 км 9/0
[Cs]
+33.0 +20.6 48 +40 +48 очень
душно
1013.9 963.5
12 13.06 З 2 10 км 9/0
[Ac trans Cs]
+38.5 +18.2 31 +42 +59 опасность
перегрева
1011.5 961.5
15 13.06 В 6 10 км гроза без осадков 9/4 1200 м
[Cb cap Ac cuf Ci sp]
+38.0 +14.6 25 +39 +40 очень
душно
1009.3 959.3
18 13.06 штиль 0 10 км {гроза, дождь} 9/0
[Ac cuf Cs]
+33.0 +21.1 50 +41 +41 опасность
перегрева
1009.6 959.2 +41.5 1
21 13.06 штиль 0 10 км 9/0
[Ac trans Cs]
+29.6 +19.8 56 +36 +36 очень
душно
1011.2 961.0
00 14.06 штиль 0 10 км 9/0
[Cs]
+29.5 +18.2 51 +34 +34 очень
душно
1010.3 960.6
03 14.06 штиль 0 10 км 9/0
[Cs]
+27.5 +19.2 61 +33 +33 очень
душно
1010.3 960.4
06 14.06 З 2 10 км 9/0
[Cs]
+28.0 +20.4 63 +34 +36 очень
душно
1012.6 962.5 +25.0 1
09 14.06 З 4 10 км 9/0
[Cs]
+35.0 +18.7 38 +39 +48 очень
душно
1012.6 962.5
12 14.06 З 4 10 км 9/0
[Cs]
+40.0 +16.7 26 +42 +54 опасность
перегрева
1010.1 960.7
15 14.06 З 4 10 км 9/3 1000 м
[Cu med, cong Cs]
+41.0 +13.2 19 +41 +44 опасность
перегрева
1008.4 958.9
18 14.06 штиль 0 10 км 9/1 900 м
[Cb calv Cs]
+37.0 +16.5 30 +39 +39 очень
душно
1009.8 959.9 +42.0
21 14.06 Ю 4 10 км 9/0
[Cs]
+34.0 +19.2 42 +39 +39 очень
душно
1012.0 961.7
00 15.06 штиль 0 10 км 9/0
[Cs]
+31.5 +18.8 47 +37 +37 очень
душно
1009.6 961.9
03 15.06 штиль 0 10 км 9/0
[Cs]
+30.0 +22.1 63 +39 +39 очень
душно
1009.2 961.5
06 15.06 З 4 10 км 9/0
[Cs]
+30.0 +22.9 66 +40 +41 очень
душно
1011.0 962.9 +29.5
09 15.06 З 2 10 км 9/0
[Cs]
+35.5 +21.1 43 +43 +55 опасность
перегрева
1012.6 962.9
12 15.06 В 6 10 км 9/3 1200 м
[Cu hum Ci sp]
+40.2 +15.5 24 +42 +46 опасность
перегрева
1010.6 961.2
15 15.06 В 4 10 км 9/4 1200 м
[Cu med, cong Ci sp]
+40.5 +14.1 21 +41 +44 опасность
перегрева
1008.2 958.8
18 15.06 штиль 0 10 км в посл. час дождь 9/6 900 м
[Cb calv Ci sp]
+36.5 +20.7 40 +43 +43 опасность
перегрева
1008.9 959.2 +41.6 0.2
21 15.06 штиль 0 10 км 9/1 900 м
[Cb calv Ac cuf Ci sp]
+33.0 +17.9 41 +37 +37 очень
душно
1011.6 961.9

 

Местоположение метеостанции Гуре (Нигер): широта 13.98 долгота 10.30 высота над уровнем моря 460 м.

В архиве по умолчанию представлена погода в Гуре за последнюю неделю. Архивные данные за месяц целиком и за предыдущие месяцы, начиная с января 2011 года, Вы можете получить, выбрав интересующий диапазон дат из раскрывающегося списка и нажав кнопку "Ввод!".


*Определитесь, кто Вы:
робот инопланетянин человек

Внимание! Время в таблицах - всемирное. Для получения местного времени необходимо прибавить поправку, которая равна 1 ч.

Смотрите также архив погоды в соседних городах и на ближайших метеорологических станциях:

Погода в Зиндере (Нигер) (144 км)
Погода в Магарьа (Нигер) (185 км)
Погода в Майне-Сороа (Нигер) (200 км)
Погода в Диффе (Нигер) (275 км)
Погода в Кано (Нигерия) (288 км)
Погода в Кацине (Нигерия) (303 км)
Погода в Нгигми (Нигер) (306 км)
Погода в Маради (Нигер) (353 км)
Погода в Агадесе (Нигер) (416 км)
Погода в Гомбе (Нигерия) (422 км)

Пояснения к столбцам:

Ветер - указаны скорость ветра в м/с - средняя за 10 мин, порывы в срок и между сроками (в фигурных скобках) и направление, откуда дует ветер: С - северный, СВ - северо-восточный, В - восточный, ЮВ - юго-восточный, Ю - южный, ЮЗ - юго-западный, З - западный, СЗ - северо-западный.
Видимость - горизонтальная дальность видимости в метрах или километрах. При видимости от 1 до 10 км при отсутствии осадков обычно наблюдается дымка, при ухудшении видимости до 1 км и менее - туман. В сухую погоду видимость может ухудшаться дымом, пылью или мглою.
Явления - указаны атмосферные явления, наблюдавшиеся в срок или в последний час перед сроком; фигурными скобками обозначены явления, наблюдавшиеся между сроками (за 1-3 часа до срока); квадратными скобками обозначены град или гололедные отложения с указанием их диаметра в мм.
Облачность - указаны через наклонную черту общая и нижняя облачность в баллах и высота нижней границы облаков в метрах; квадратными скобками обозначены формы облаков: Ci - перистые, Cs - перисто-слоистые, Cc - перисто-кучевые, Ac - высококучевые, As - высокослоистые, Sc - слоисто-кучевые, Ns - слоисто-дождевые, Cu - кучевые, Cb - кучево-дождевые. Подробнее классификацию облаков см. в Атласе облаков (PDF).
T - Температура воздуха - температура, измеренная на высоте 2 м над землей.
Td - Температура точки росы - температура, при понижении до которой содержащийся в воздухе водяной пар достигнет насыщения.
f - Относительная влажность воздуха - влажноcть воздуха, измеренная на высоте 2 м над землей.
Te - Эффективная температура - температура, которую ощущает одетый по сезону человек в тени. Характеристика душности погоды. При расчете учитывается влияние влажности воздуха и скорости ветра на теплоощущения человека.
Tes - Эффективная температура на солнце - температура, которую ощущает человек, с поправкой на солнечный нагрев. Характеристика знойности погоды. Зависит от высоты солнца над горизонтом, облачности и скорости ветра. Ночью, в пасмурную погоду, а также при ветре 12 м/с и более поправка равна нулю.
P - Атмосферное давление - приведенное к уровню моря атмосферное давление.
Po - Атмосферное давление - измеренное на уровне метеостанции атмосферное давление.
Tmin - Минимальная температура - минимум температуры воздуха на высоте 2 м над землей.
Tmax - Максимальная температура - максимум температуры воздуха на высоте 2 м над землей.
R - Количество осадков - Количество выпавших осадков за период времени, мм. При наведении курсора мыши на число - период времени, за который выпало указанное количество осадков.
R24 - Количество осадков - Количество выпавших осадков за 24 часа, мм.
S - Снежный покров - Высота снежного покрова, см. При наведении курсора мыши на число - состояние снежного покрова и степень покрытия местности в баллах.